Theta_e
334 339 337 337 338 339 337 337 336 337 339 339 337 339 331 329 337 336 334 332 332 333 332 331 337 339 335 333 335 337 337 338 337 340 343 344 344 344 336 334 336 332 334
337 339 338 338 338 340 340 339 337 337 339 340 339 339 333 336 336 333 332 336 333 330 328 331 332 334 335 333 339 338 342 340 340 339 342 343 343 340 335 331 334 338 331
338 340 339 339 340 341 340 339 338 339 337 337 338 332 336 336 331 336 335 334 327 335 331 338 338 333 332 333 335 340 346 346 345 342 338 336 335 335 335 329 337 336 325
341 342 340 341 342 341 340 340 339 336 332 332 332 337 338 330 338 338 331 341 332 332 338 332 331 334 330 335 339 344 345 345 345 344 342 332 335 333 332 329 325 331 326
342 341 342 342 342 340 335 332 333 334 336 340 341 340 332 336 337 332 332 338 339 339 337 335 333 331 332 336 342 344 345 346 346 343 339 333 338 340 339 332 336 326 329
342 342 341 337 335 339 338 342 343 339 340 340 340 340 330 331 330 334 334 338 331 331 331 330 328 329 333 340 344 345 347 346 345 344 337 339 338 340 335 326 337 336 337
341 334 333 336 339 339 340 340 339 339 339 339 341 334 334 338 338 337 341 338 338 338 336 332 332 330 332 342 343 346 343 343 344 345 340 335 334 335 334 330 334 330 320
339 331 339 340 340 341 339 339 340 340 340 339 340 339 338 336 336 337 335 338 338 338 338 337 333 331 328 342 345 345 344 345 345 342 336 334 337 338 330 330 337 325 329
330 333 337 341 340 342 336 338 338 339 340 340 338 337 335 336 336 336 336 338 339 339 336 335 332 330 330 340 344 344 345 345 343 335 334 334 336 334 332 329 327 330 332
332 332 340 341 337 334 339 338 338 340 339 338 338 335 341 342 340 336 335 336 338 338 337 335 333 332 339 344 343 345 345 345 345 339 333 334 334 332 328 335 331 335 329
341 333 343 337 340 338 337 336 337 337 338 338 336 344 347 345 339 336 336 335 335 339 336 337 334 336 340 342 342 345 344 341 341 330 331 335 334 334 332 332 329 327 328
341 337 341 334 339 340 338 337 338 338 342 343 344 347 346 346 344 337 335 334 335 338 336 337 336 340 342 342 342 343 343 343 341 329 332 335 334 333 331 332 329 329 331
343 345 343 342 339 339 338 339 344 339 343 343 345 347 348 347 342 338 340 339 338 339 341 341 333 335 337 340 340 343 343 342 335 326 329 328 330 331 330 331 328 329 329
346 346 345 344 345 344 340 344 345 345 344 342 346 345 346 344 344 344 345 343 342 332 336 339 340 341 342 343 341 343 343 343 332 328 327 327 325 324 326 328 329 329 329
345 346 346 345 348 345 348 347 346 348 347 342 343 346 347 344 345 346 346 345 344 339 342 335 341 341 342 341 343 343 344 342 342 326 327 325 325 328 328 329 328 327 328
344 347 345 346 348 344 349 350 347 348 348 347 345 345 345 347 348 347 343 342 343 342 343 343 341 343 341 342 341 344 343 343 339 339 323 324 326 327 325 324 323 323 324
346 347 345 343 347 345 347 349 349 347 348 349 347 345 345 347 348 350 344 345 346 341 342 342 343 342 342 343 342 342 342 342 340 341 340 335 337 331 332 328 323 323 323
348 347 346 344 343 344 348 348 348 347 344 345 348 347 344 348 346 347 345 346 344 344 343 342 341 342 342 344 342 343 343 341 340 343 341 341 344 341 342 334 331 333 333
345 346 346 345 342 341 347 345 347 350 348 348 348 344 344 347 344 346 348 345 344 345 345 344 339 341 341 342 342 343 343 343 342 340 342 343 344 343 345 339 341 341 343
344 345 345 345 340 341 338 345 349 349 349 348 348 349 346 344 345 347 342 346 346 346 345 343 342 344 342 342 342 344 342 343 341 342 344 343 344 345 344 338 343 342 344
342 343 344 345 345 343 344 344 347 349 350 348 348 349 348 349 345 349 343 345 347 348 344 343 344 342 340 342 341 341 342 344 344 343 343 345 343 341 344 340 339 342 342
342 343 343 344 346 344 343 343 347 349 348 349 350 350 344 348 346 346 348 345 348 347 345 343 344 343 343 340 340 342 340 343 342 341 343 345 343 342 344 342 342 338 330
342 342 342 342 347 345 341 341 347 348 347 349 351 350 349 341 349 346 345 349 347 346 339 342 340 343 340 339 341 341 339 341 341 342 340 340 341 340 342 343 343 344 343
343 341 341 342 345 346 344 339 344 347 346 349 347 348 349 342 345 345 343 345 344 347 343 341 344 345 343 341 339 343 340 343 341 339 339 339 337 338 342 341 342 345 344
344 342 341 341 343 344 343 337 346 346 345 348 348 349 347 345 345 349 344 342 345 349 347 344 346 348 345 347 338 340 340 342 341 341 343 342 342 343 342 343 343 344 343
345 343 342 342 340 342 342 337 342 344 346 349 345 349 348 349 346 350 350 347 341 344 344 347 344 347 344 344 341 340 339 343 340 342 343 343 343 344 343 344 344 344 342
Wind_Speed
27 23 22 22 18 16 14 14 12 9 9 9 9 10 11 11 12 11 10 9 8 8 9 10 11 13 13 14 17 17 17 18 18 18 20 20 20 21 19 17 21 20 21
29 24 22 19 16 14 12 12 11 9 8 10 10 9 10 10 10 11 12 11 10 10 10 10 10 11 13 14 15 16 17 19 21 19 16 18 19 18 14 19 21 20 21
28 24 21 18 16 13 13 13 11 9 9 9 8 8 10 10 12 11 11 11 11 12 12 12 9 11 13 14 16 17 19 19 18 20 14 17 17 17 18 19 20 19 20
28 23 21 18 15 15 15 13 12 10 9 9 9 10 10 11 12 11 12 12 14 13 11 11 11 12 14 17 19 19 20 20 19 14 13 15 19 19 19 19 19 19 21
27 24 21 18 17 15 13 11 11 10 10 11 11 11 12 12 12 11 13 13 12 13 13 12 11 14 17 19 19 20 17 20 17 13 13 15 19 19 18 18 19 19 20
27 24 22 19 17 15 13 12 12 11 12 12 12 12 11 12 12 12 13 13 13 14 14 15 15 16 19 21 19 18 18 17 16 7 14 14 17 18 14 17 18 18 16
24 23 21 18 16 15 14 13 12 12 12 13 13 12 12 11 11 12 12 13 14 13 13 13 15 18 23 21 18 16 17 15 11 11 6 13 16 15 16 16 18 15 15
24 23 22 19 17 15 15 14 13 13 13 14 13 12 11 11 11 11 12 13 15 16 15 14 14 16 22 21 20 18 16 13 9 9 11 13 16 15 15 16 16 15 16
23 24 22 19 18 16 15 15 14 14 13 14 13 12 12 12 11 9 11 13 13 14 15 14 16 17 21 22 19 16 16 13 9 11 11 13 14 14 15 15 15 14 14
25 23 22 19 17 17 16 15 14 14 14 15 15 15 14 14 14 14 12 14 14 14 13 15 16 16 23 21 18 16 15 14 7 9 10 11 14 13 14 14 14 13 13
19 21 20 20 18 17 17 16 15 16 17 17 17 15 14 16 16 16 13 13 14 14 15 16 16 18 23 19 17 13 9 10 10 9 10 12 13 13 13 12 13 11 11
22 20 20 19 19 16 16 16 17 19 18 18 15 13 13 13 14 14 15 16 16 13 13 13 18 18 18 16 13 7 7 8 8 8 11 12 12 12 11 11 11 11 10
21 20 21 16 20 19 15 20 19 16 12 10 8 11 14 13 10 16 18 18 17 16 10 9 8 9 10 12 9 8 19 9 8 9 9 10 11 11 11 10 10 10 9
27 26 21 20 20 17 19 17 15 15 13 6 12 7 9 9 6 6 9 10 9 7 11 8 11 11 13 17 17 12 16 10 9 8 9 8 9 9 9 9 9 8 8
32 32 27 22 19 16 12 12 11 11 13 13 9 6 8 8 9 8 6 7 10 7 9 14 9 9 11 15 13 12 21 10 9 8 9 8 8 8 8 7 6 6 6
29 35 27 29 23 20 13 10 15 14 11 12 9 5 6 9 8 6 6 8 4 7 7 9 11 10 10 16 9 13 12 11 12 13 10 10 9 8 7 6 5 4 4
30 33 31 27 22 22 18 18 17 15 15 13 9 6 8 10 8 6 6 9 8 8 12 10 9 8 6 11 13 13 5 3 5 10 12 13 13 11 10 8 6 4 3
32 31 29 25 24 25 22 22 14 11 16 11 10 7 8 7 9 7 7 9 9 8 7 11 13 12 14 10 9 14 9 6 9 9 9 10 11 10 10 10 8 7 6
29 30 24 20 25 29 24 24 15 13 11 8 6 7 5 7 7 11 6 7 8 7 9 8 9 11 12 14 12 10 10 7 4 8 7 9 6 7 9 10 7 8 8
30 28 22 20 21 23 23 26 17 13 12 14 8 6 4 6 7 10 13 12 8 8 6 11 15 9 10 13 7 11 6 4 6 5 5 3 2 4 5 9 5 4 6
35 32 27 26 23 22 23 29 22 16 15 13 13 7 8 5 6 8 11 11 8 7 9 11 13 13 11 14 9 12 7 9 2 1 5 5 1 2 2 5 5 2 3
39 36 32 29 27 23 23 30 22 17 17 14 12 12 4 7 4 6 8 10 6 4 8 11 6 10 13 8 9 5 5 7 6 5 3 7 4 4 5 4 11 11 6
41 39 35 35 30 27 23 27 23 17 18 15 15 14 9 6 7 9 8 8 9 5 6 9 13 10 9 10 4 5 5 5 8 6 7 4 5 2 6 7 8 9 11
43 39 36 37 35 30 27 27 28 24 23 19 17 13 8 8 7 5 5 6 10 9 7 17 14 11 10 7 5 5 5 4 8 7 6 7 4 10 6 6 8 8 10
44 42 40 35 39 35 31 29 31 28 25 20 18 17 13 8 9 7 3 5 12 8 10 11 11 7 8 6 7 5 5 4 8 7 5 8 8 6 8 6 3 6 7
46 44 42 38 40 39 35 32 33 32 28 23 23 23 19 15 10 12 11 4 9 11 11 12 11 12 10 10 10 8 6 3 4 1 4 3 10 8 4 7 5 6 8
Wind_Direction
161 151 147 142 139 132 137 145 143 122 103 111 107 88 86 94 90 88 90 94 102 110 120 126 120 116 116 115 108 103 106 105 101 96 96 98 95 94 86 95 93 93 94
153 153 152 152 145 137 143 145 139 130 107 105 108 89 89 92 87 85 86 86 99 106 120 122 124 120 114 110 108 102 101 101 95 85 97 99 98 97 90 94 96 95 92
155 158 157 155 148 145 142 139 146 129 115 109 104 98 99 96 98 95 91 89 100 101 103 114 117 123 118 109 110 104 97 101 95 78 83 101 100 100 98 92 94 93 92
156 160 157 152 147 145 142 140 138 132 124 117 112 108 103 104 100 94 94 83 90 108 103 116 110 119 115 113 111 105 105 91 99 86 75 100 102 99 95 95 97 95 95
156 153 150 146 145 145 142 137 134 129 125 120 117 113 106 106 101 95 100 104 105 101 106 108 107 113 115 115 118 106 100 106 108 98 83 101 101 100 95 95 96 94 93
146 149 148 147 143 140 135 133 132 130 126 123 120 121 115 111 107 100 99 98 99 102 106 100 104 109 114 121 110 107 115 104 110 103 88 105 103 102 97 99 99 97 102
146 149 146 144 139 141 144 137 131 128 126 125 122 120 114 107 105 109 108 101 107 105 108 106 103 103 121 123 106 102 111 108 96 99 98 112 104 105 100 98 106 97 95
156 149 144 144 143 142 137 134 130 129 125 127 124 115 105 102 98 104 110 103 107 96 109 102 100 108 126 125 107 99 104 115 93 83 108 111 108 106 102 99 104 96 97
155 149 146 147 144 141 137 131 130 127 123 126 121 111 101 90 90 102 113 110 104 98 97 99 101 106 126 126 115 114 107 106 99 95 113 115 113 109 108 103 102 104 100
147 149 145 145 147 143 140 136 136 126 123 123 117 109 96 85 82 89 114 115 103 96 97 96 103 114 127 130 122 123 114 115 105 96 118 119 117 114 114 112 105 110 100
146 152 149 149 147 143 137 133 128 123 123 123 123 116 94 84 68 79 96 109 110 107 108 107 118 123 131 130 124 129 133 93 98 106 127 127 122 119 115 116 110 106 104
144 149 152 146 146 139 131 125 120 120 120 123 121 106 108 93 72 82 98 102 105 111 119 116 120 126 130 135 144 130 130 120 93 122 127 130 124 124 121 119 112 111 108
150 144 146 131 140 124 128 129 118 122 117 109 87 105 109 115 102 107 99 102 114 123 128 125 139 124 123 119 128 121 147 134 98 123 125 126 125 127 123 120 115 113 109
160 157 153 140 139 126 140 125 124 125 128 95 112 122 133 125 146 123 134 129 129 144 146 122 133 94 123 123 83 115 158 161 103 112 112 116 117 121 118 119 115 110 108
165 172 159 156 157 145 142 144 125 142 128 124 144 162 151 142 107 137 129 134 149 131 90 171 133 84 121 116 95 104 161 121 75 86 104 106 104 106 109 110 106 101 106
176 171 158 161 156 165 169 172 171 168 172 156 156 148 136 138 114 141 107 97 108 142 131 112 130 134 121 108 104 119 122 101 91 69 86 96 95 95 93 93 92 97 100
169 164 168 174 164 165 166 146 153 168 164 157 176 162 168 144 154 137 90 108 131 126 119 144 119 137 132 107 106 126 86 92 78 75 84 88 80 82 70 70 73 74 86
171 172 172 180 180 177 170 154 165 166 162 157 188 215 178 172 149 158 139 116 115 116 109 131 139 128 141 147 144 133 128 87 103 103 89 88 84 67 61 58 69 63 46
179 181 182 192 190 183 177 164 164 159 161 158 159 142 146 161 165 158 149 125 111 115 102 124 150 138 133 150 131 155 139 106 125 106 109 84 89 70 50 44 84 62 43
184 184 180 187 183 179 183 173 152 160 170 166 190 175 146 149 149 156 136 142 142 130 95 129 133 142 149 144 147 175 147 146 119 120 113 76 76 63 38 30 72 15 10
184 187 186 190 193 188 175 176 164 173 173 186 188 208 184 179 142 123 149 140 121 114 138 141 144 142 119 144 147 150 133 177 140 103 208 238 250 62 347 38 25 335 308
185 192 191 191 196 197 183 178 175 175 184 182 185 185 160 175 147 146 135 145 143 132 158 147 160 133 148 123 153 157 159 185 211 229 220 221 213 255 279 332 2 10 326
189 193 193 192 198 201 196 179 176 174 184 190 189 176 172 208 197 173 152 151 160 135 139 162 164 161 157 142 153 150 140 165 187 193 229 181 197 252 307 267 332 356 6
193 195 197 197 198 201 202 189 178 185 185 190 193 198 200 203 191 185 175 169 165 149 150 156 162 146 153 165 153 130 103 95 169 182 186 205 192 207 237 255 293 310 356
196 197 198 204 202 203 205 197 184 185 187 189 202 205 216 194 198 218 198 178 184 174 156 170 167 179 182 178 169 132 142 127 137 189 196 217 218 202 219 265 329 308 329
200 199 200 204 208 208 205 201 192 188 187 193 200 214 212 202 203 202 226 221 181 198 181 184 194 192 191 178 192 194 216 169 180 46 313 257 266 231 205 201 272 329 342